Satellite: OKEAN-0
Catalog number: 25860
Epoch time:      05286.54581790
Element set:     562
Inclination:      097.7517 deg
RA of node:       307.2023 deg
Eccentricity:    0.0001488
Arg of perigee:   128.8119 deg
Mean anomaly:     231.3231 deg
Mean motion:   14.73299036 rev/day
Decay rate:       1.26e-06 rev/day^2
Epoch rev:           33543
Checksum:              294

Satellite: NOAA-16
Catalog number: 26536
Epoch time:      05286.39253671
Element set:     563
Inclination:      099.0294 deg
RA of node:       245.5989 deg
Eccentricity:    0.0011411
Arg of perigee:   094.8973 deg
Mean anomaly:     265.3506 deg
Mean motion:   14.12279183 rev/day
Decay rate:       -5.0e-07 rev/day^2
Epoch rev:           26074
Checksum:              324

Satellite: NOAA-17
Catalog number: 27453
Epoch time:      05286.14795389
Element set:     583
Inclination:      098.6500 deg
RA of node:       357.8188 deg
Eccentricity:    0.0012572
Arg of perigee:   075.9076 deg
Mean anomaly:     284.3504 deg
Mean motion:   14.23711282 rev/day
Decay rate:       1.94e-06 rev/day^2
Epoch rev:           17162
Checksum:              329

Satellite: NOAA-18
Catalog number: 28654
Epoch time:      05286.06914793
Element set:     188
Inclination:      098.7550 deg
RA of node:       230.0281 deg
Eccentricity:    0.0013895
Arg of perigee:   198.7587 deg
Mean anomaly:     161.3071 deg
Mean motion:   14.10888970 rev/day
Decay rate:       -1.2e-07 rev/day^2
Epoch rev:            2053
Checksum:              322

/EX
SB KEPS @ AMSAT  $ORB05286.M
Orbital Elements  05286.MISC

HR AMSAT ORBITAL ELEMENTS FOR MANNED AND MISCELLANEOUS SATELLITES
FROM WA5QGD FORT WORTH,TX October 13, 2005
Send SUBSCRIBE KEPS/UNSUBSCRIBE KEPS to majordomo@amsat.org only
BID: ORB05286.M
TO ALL RADIO AMATEURS BT

Satellite: HUBBLE
Catalog number: 20580
Epoch time:      05285.97534264
Element set:    0456
Inclination:      028.4679 deg
RA of node:       221.2301 deg
Eccentricity:    0.0003714
Arg of perigee:   086.2840 deg
Mean anomaly:     273.8165 deg
Mean motion:   14.99863931 rev/day
Decay rate:       7.33e-06 rev/day^2
Epoch rev:           64794
Checksum:              317

Satellite: UARS
Catalog number: 21701
Epoch time:      05286.76928852
Element set:     573
Inclination:      056.9799 deg
RA of node:       068.5754 deg
Eccentricity:    0.0082088
Arg of perigee:   099.9622 deg
Mean anomaly:     261.1231 deg
Mean motion:   15.22126173 rev/day
Decay rate:        9.0e-08 rev/day^2
Epoch rev:           77134
Checksum:              325

Satellite: PO-34
Catalog number: 25520
Epoch time:      05285.98594307
Element set:    0300
Inclination:      028.4595 deg
RA of node:       244.6278 deg
Eccentricity:    0.0005687
Arg of perigee:   071.7743 deg
Mean anomaly:     288.3470 deg
Mean motion:   15.16470204 rev/day
Decay rate:       9.39e-06 rev/day^2
Epoch rev:           38448
Checksum:              330

Satellite: ISS
Catalog number: 25544
Epoch time:      05286.76865936
Element set:     545
Inclination:      051.6447 deg
RA of node:       013.4294 deg
Eccentricity:    0.0001367
Arg of perigee:   098.1184 deg
Mean anomaly:     352.9371 deg
Mean motion:   15.74101621 rev/day
Decay rate:     2.5787e-04 rev/day^2
Epoch rev:           39434
Checksum:              320

Satellite: OO-38
Catalog number: 26063
Epoch time:      05285.69238925
Element set:    0461
Inclination:      100.1955 deg
RA of node:       167.1311 deg
Eccentricity:    0.0037255
Arg of perigee:   084.5507 deg
Mean anomaly:     275.9927 deg
Mean motion:   14.35736450 rev/day
Decay rate:       -7.0e-07 rev/day^2
Epoch rev:           29916
Checksum:              320

Satellite: NO-45
Catalog number: 26932
Epoch time:      05285.48020278
Element set:    0148
Inclination:      067.0578 deg
RA of node:       285.3670 deg
Eccentricity:    0.0003786
Arg of perigee:   263.3926 deg
Mean anomaly:     096.6753 deg
Mean motion:   14.29501624 rev/day
Decay rate:       -8.4e-07 rev/day^2
Epoch rev:           21056
Checksum:              322

/EX



----
Via the keps mailing list at AMSAT.ORG courtesy of AMSAT-NA.
To unsubscribe, send "unsubscribe keps" to Majordomo@amsat.org

--- ViaMAIL!/WC v1.60d
 * Origin: Chowdanet (401-724-4410) telnet://chowdanet.com  (1:323/120)